Torna al catalogo

STARLINK-31691

AttivoComunicazioniVLEO
NORAD 59856·PAYLOAD·🇺🇸 United States

Lanciato May 23, 2024 da Cape Canaveral Space Force Station

Loading…

Prossimi Passaggi (prossime 24 ore)

TLE

AggiornatoSource: CelesTrak SupGP

Epoca: Sep 15, 2026, 02:08 UTC

1 59856C 24097X   26258.08937500  .00013946  00000+0  50499-3 0  2580
2 59856  43.0030 284.3172 0001378 267.7416 239.3765 15.27580101    10

Traccia STARLINK-31691 in tempo reale con AllMySat

Download on the App Store